This is the latest recevied weather packets stored in our database for station/object N4QD-13. If no packets are shown the sender has not sent any weather packets the latest 10 day(s).
| Time | Temp. | Humidity | Pressure | Rain* | Wind** | Luminosity | Snow |
|---|---|---|---|---|---|---|---|
| 1777757774 | 13.89° C | 47% | 1013.1 hPa | 0 mm | - | 117 W/m² | - |
| 1777757470 | 13.89° C | 47% | 1013 hPa | 0 mm | - | 137 W/m² | - |
| 1777757170 | 13.89° C | 47% | 1012.8 hPa | 0 mm | - | 151 W/m² | - |
| 1777756868 | 14.44° C | 47% | 1012.8 hPa | 0 mm | - | 182 W/m² | - |
| 1777756562 | 15.56° C | 44% | 1013 hPa | 0 mm | - | 248 W/m² | - |
| 1777756260 | 15° C | 45% | 1012.8 hPa | 0 mm | - | 502 W/m² | - |
| 1777755957 | 14.44° C | 44% | 1013.1 hPa | 0 mm | - | 549 W/m² | - |
| 1777755654 | 15° C | 45% | 1012.6 hPa | 0 mm | - | 514 W/m² | - |
| 1777755350 | 13.89° C | 47% | 1012.8 hPa | 0 mm | - | 495 W/m² | - |
| 1777755048 | 14.44° C | 46% | 1012.8 hPa | 0 mm | - | 232 W/m² | - |
| 1777754744 | 14.44° C | 46% | 1012.9 hPa | 0 mm | - | 239 W/m² | - |
| 1777754442 | 14.44° C | 46% | 1012.6 hPa | 0 mm | - | 209 W/m² | - |
| 1777754139 | 15° C | 45% | 1012.6 hPa | 0 mm | - | 180 W/m² | - |
| 1777753836 | 15.56° C | 44% | 1012.8 hPa | 0 mm | - | 232 W/m² | - |
| 1777753532 | 15.56° C | 45% | 1012.8 hPa | 0 mm | - | 257 W/m² | - |
| 1777753231 | 15.56° C | 44% | 1012.6 hPa | 0 mm | - | 296 W/m² | - |
| 1777752926 | 16.11° C | 42% | 1013 hPa | 0 mm | - | 300 W/m² | - |
| 1777752622 | 16.67° C | 42% | 1012.5 hPa | 0 mm | - | 785 W/m² | - |
| 1777752318 | 15.56° C | 42% | 1012.9 hPa | 0 mm | - | 891 W/m² | - |
| 1777752017 | 16.67° C | 45% | 1012.6 hPa | 0 mm | - | 308 W/m² | - |
| 1777751714 | 16.11° C | 42% | 1012.9 hPa | 0 mm | - | 781 W/m² | - |
| 1777751409 | 15.56° C | 44% | 1012.8 hPa | 0 mm | - | 773 W/m² | - |
| 1777751107 | 15.56° C | 45% | 1012.8 hPa | 0 mm | - | 258 W/m² | - |
| 1777750802 | 15.56° C | 47% | 1013 hPa | 0 mm | - | 313 W/m² | - |
| 1777750500 | 15° C | 44% | 1013.1 hPa | 0 mm | - | 228 W/m² | - |
* Rain latest hour (hover to see other rain measurements)
** Current wind speed in m/s (hover to see current wind gust speed)